EW2281 Weather Reports


Display with metric or nautical units.
time (UTC)temp
F
wind
direction
speed
MPH
gust
MPH
rain 1hr
in
rain 24hr
in
rain mn
in
humidity
%
barometer
mb
20260509054838 49 236 0.0 0.0 0.01 0.02 0.01 95 966.4
20260509054601 49 236 0.0 0.0 0.01 0.02 0.01 94 966.5
20260509053609 49 236 0.0 0.0 0.01 0.02 0.01 95 966.7
20260509053102 49 236 0.0 0.0 0.01 0.02 0.01 95 966.6
20260509052557 49 236 0.0 0.0 0.01 0.02 0.01 94 966.8
20260509052313 49 236 0.0 0.0 0.00 0.01 0.00 94 966.9
20260509051544 49 236 0.0 0.0 0.00 0.01 0.00 94 967.1
20260509051038 49 236 0.0 0.0 0.00 0.01 0.00 94 967.4
20260509050533 49 236 0.0 0.0 0.00 0.01 0.00 94 967.4
20260509050026 49 236 0.0 0.0 0.00 0.01 0.00 93 967.4
20260509045521 49 236 0.0 0.0 0.00 0.01 0.00 93 967.4
20260509045232 49 236 0.0 0.0 0.00 0.01 0.00 93 967.4
20260509044508 49 236 0.0 0.0 0.00 0.01 0.00 93 967.4
20260509044004 49 236 0.0 0.0 0.00 0.01 0.00 94 967.4
20260509043457 50 236 0.0 0.0 0.00 0.01 0.00 94 967.3
20260509042951 50 236 0.0 0.0 0.00 0.01 0.00 93 967.2
20260509042445 50 236 0.0 0.0 0.00 0.01 0.00 93 967.2
20260509041938 50 236 0.0 0.0 0.00 0.01 0.00 93 967.2
20260509041432 50 236 0.0 0.0 0.00 0.01 0.00 92 967.2
20260509040926 50 236 0.0 0.0 0.00 0.01 0.00 92 967.2
20260509040420 50 236 0.0 0.0 0.00 0.01 0.00 92 967.4
20260509040132 50 236 0.0 0.0 0.00 0.01 0.01 91 967.4
20260509035408 50 236 0.0 0.0 0.00 0.01 0.01 91 967.3
20260509034902 50 236 0.0 0.0 0.00 0.01 0.01 90 967.4
20260509034357 50 236 0.0 0.0 0.00 0.01 0.01 91 967.4
20260509033857 50 236 0.0 0.0 0.00 0.01 0.01 91 967.6
20260509033357 50 236 0.0 0.0 0.00 0.01 0.01 90 967.5
20260509032854 50 236 0.0 0.0 0.00 0.01 0.01 90 967.2
20260509032351 50 236 0.0 0.0 0.00 0.01 0.01 89 967.2
20260509031850 50 236 0.0 0.0 0.00 0.01 0.01 89 967.1
20260509031348 50 236 0.0 0.0 0.00 0.01 0.01 89 967.1
20260509031104 50 236 0.0 0.0 0.00 0.01 0.01 89 967.2
20260509030602 50 236 0.0 0.0 0.00 0.01 0.01 89 967.1
20260509025841 50 236 0.0 0.0 0.00 0.01 0.01 89 967.1
20260509025343 50 236 0.0 0.0 0.00 0.01 0.01 89 967.2
20260509024842 50 236 0.0 0.0 0.00 0.01 0.01 89 967.2
20260509024602 50 236 0.0 0.0 0.00 0.01 0.01 88 967.3
20260509023840 50 236 0.0 0.0 0.00 0.01 0.01 88 967.5
20260509023335 50 236 0.0 0.0 0.00 0.01 0.01 87 967.4
20260509022836 51 236 0.0 0.0 0.00 0.01 0.01 86 967.4
20260509022337 51 236 0.0 0.0 0.00 0.01 0.01 86 967.5
20260509021833 51 236 0.0 0.0 0.00 0.01 0.01 85 967.6
20260509021331 52 236 0.0 0.0 0.00 0.01 0.01 84 967.3
20260509020829 52 236 0.0 0.0 0.00 0.01 0.01 84 967.3
20260509020329 52 235 0.0 0.0 0.00 0.01 0.01 83 967.1
20260509015828 52 235 0.0 0.0 0.00 0.01 0.01 83 967.2
20260509015322 52 235 0.0 0.0 0.00 0.01 0.01 83 967.0
20260509014816 53 235 0.0 0.0 0.00 0.01 0.01 82 966.7
20260509014529 53 238 0.0 0.0 0.00 0.01 0.01 81 967.0
20260509014021 53 225 0.0 0.0 0.00 0.01 0.01 81 967.3
20260509013257 53 225 0.0 0.0 0.00 0.01 0.01 80 967.3
20260509012748 53 225 0.0 0.0 0.00 0.01 0.01 79 967.4
20260509012242 54 302 0.0 0.0 0.00 0.01 0.01 78 967.3
20260509011956 54 303 0.0 0.0 0.00 0.01 0.01 77 967.1
20260509011230 53 277 0.0 0.0 0.00 0.01 0.01 78 967.0
20260509010724 53 270 0.0 0.0 0.00 0.01 0.01 78 966.8
20260509010218 54 270 0.0 0.0 0.00 0.01 0.01 77 966.6
20260509005712 54 270 0.0 0.0 0.00 0.01 0.01 77 966.6
20260509005434 54 270 0.0 0.0 0.00 0.01 0.01 76 966.5
20260509004923 54 270 0.0 0.0 0.00 0.01 0.01 75 966.5
20260509004154 55 270 0.0 0.0 0.00 0.01 0.01 75 966.5
20260509003908 55 270 0.0 0.0 0.00 0.01 0.01 74 966.5
20260509003142 55 270 0.0 0.0 0.00 0.01 0.01 73 966.6
20260509002856 55 304 0.0 0.0 0.00 0.01 0.01 71 966.6
20260509002617 55 310 0.0 0.0 0.00 0.01 0.01 71 966.6
20260509001633 55 219 0.0 0.0 0.00 0.01 0.01 71 966.6
20260509001352 55 175 0.0 0.0 0.00 0.01 0.01 72 966.6
20260509000905 56 175 0.0 2.0 0.00 0.01 0.01 71 966.6
20260509000127 56 175 0.0 3.0 0.00 0.01 0.01 70 966.6
20260508235626 56 292 1.0 4.0 0.00 0.01 0.01 70 966.6
20260508235123 56 279 1.0 4.0 0.00 0.01 0.01 69 966.4
20260508234843 56 296 1.0 5.0 0.00 0.01 0.01 70 966.4
20260508234123 56 284 1.0 5.0 0.00 0.01 0.01 69 966.3
20260508233845 56 207 1.0 5.0 0.00 0.01 0.01 70 966.4
20260508233121 56 236 1.0 7.0 0.00 0.01 0.01 70 966.4
20260508232622 56 221 1.0 7.0 0.00 0.01 0.01 69 966.4
20260508232121 56 344 1.0 8.0 0.00 0.01 0.01 69 966.3
20260508231619 57 288 1.0 8.0 0.00 0.01 0.01 69 966.3
20260508231120 57 207 1.0 7.0 0.00 0.01 0.01 69 966.2
20260508230618 57 225 1.0 7.0 0.00 0.01 0.01 69 966.1
20260508230115 57 321 0.0 2.0 0.00 0.01 0.01 71 966.0
20260508225616 58 182 0.0 3.0 0.00 0.01 0.01 70 966.0
20260508225113 58 111 0.0 5.0 0.00 0.01 0.01 70 966.0
20260508224614 58 225 0.0 5.0 0.00 0.01 0.01 69 965.9
20260508224108 59 220 1.0 6.0 0.00 0.01 0.01 68 966.0
20260508223606 60 227 1.0 6.0 0.00 0.01 0.01 68 966.0
20260508223104 60 314 1.0 5.0 0.00 0.01 0.01 68 966.0
20260508222823 60 284 0.0 5.0 0.00 0.01 0.01 66 965.9
20260508222106 60 219 0.0 3.0 0.00 0.01 0.01 68 966.0
20260508221601 59 300 0.0 0.0 0.00 0.01 0.01 71 966.1
20260508221100 58 206 0.0 0.0 0.00 0.01 0.01 75 966.2
20260508220600 58 172 0.0 0.0 0.00 0.01 0.01 75 966.2
20260508220100 58 184 0.0 0.0 0.00 0.01 0.01 77 966.2
20260508215600 57 162 0.0 0.0 0.00 0.01 0.01 78 966.2
20260508215058 56 204 0.0 0.0 0.00 0.01 0.01 81 966.3
20260508214558 55 288 0.0 0.0 0.00 0.01 0.01 80 966.3
20260508214056 55 313 0.0 3.0 0.00 0.01 0.01 79 966.3
20260508213824 55 305 1.0 3.0 0.00 0.01 0.01 79 966.3
20260508213054 55 311 0.0 3.0 0.01 0.01 0.01 79 966.2
20260508212816 55 305 0.0 2.0 0.01 0.01 0.01 79 966.1
20260508212057 55 313 0.0 0.0 0.01 0.01 0.01 79 966.1
20260508211554 54 65 0.0 0.0 0.01 0.01 0.01 80 966.1
20260508211052 54 64 0.0 2.0 0.01 0.01 0.01 81 966.3
20260508210553 54 355 0.0 2.0 0.01 0.01 0.01 82 966.3
20260508210321 53 297 0.0 2.0 0.01 0.01 0.01 82 966.3
20260508205813 53 322 1.0 4.0 0.01 0.01 0.01 82 966.3
20260508205049 53 255 1.0 4.0 0.01 0.01 0.01 82 966.4
20260508204549 53 293 1.0 8.0 0.01 0.01 0.01 81 966.5
20260508204306 54 302 2.0 10.0 0.01 0.01 0.01 80 966.7
20260508203547 55 300 3.0 10.0 0.01 0.01 0.01 76 966.9
20260508203046 56 289 2.0 9.0 0.00 0.00 0.00 70 966.8
20260508202547 58 330 2.0 12.0 0.00 0.00 0.00 62 966.5
20260508202047 59 231 3.0 12.0 0.00 0.00 0.00 58 966.3
20260508201546 59 321 2.0 11.0 0.00 0.00 0.00 55 966.1
20260508201047 59 284 1.0 5.0 0.00 0.00 0.00 55 966.0
20260508200547 60 136 1.0 5.0 0.00 0.00 0.00 55 966.0
20260508200047 59 308 1.0 5.0 0.00 0.00 0.00 55 966.1
20260508195547 59 310 0.0 3.0 0.00 0.00 0.00 61 966.1
20260508195048 59 135 0.0 1.0 0.00 0.00 0.00 64 966.1
20260508194544 59 221 0.0 0.0 0.00 0.00 0.00 65 966.2
20260508194309 58 32 0.0 0.0 0.00 0.00 0.00 67 966.2
20260508193806 58 36 0.0 0.0 0.00 0.00 0.00 65 966.1
20260508193043 58 355 0.0 0.0 0.00 0.00 0.00 64 966.2
20260508192807 58 24 0.0 0.0 0.00 0.00 0.00 65 966.2
20260508192043 58 23 0.0 0.0 0.00 0.00 0.00 64 966.2
20260508191807 58 23 0.0 0.0 0.00 0.00 0.00 64 966.2
20260508191043 58 23 0.0 2.0 0.00 0.00 0.00 64 966.1
20260508190544 58 24 0.0 2.0 0.00 0.00 0.00 62 966.2
20260508190042 59 40 0.0 4.0 0.00 0.00 0.00 64 966.1
20260508185544 59 346 1.0 4.0 0.00 0.00 0.00 62 966.1
20260508185043 59 22 0.0 4.0 0.00 0.00 0.00 64 966.3
20260508184802 59 20 1.0 13.0 0.00 0.00 0.00 66 966.2
20260508184041 59 334 2.0 13.0 0.00 0.00 0.00 63 966.3
20260508183542 59 30 2.0 12.0 0.00 0.00 0.00 55 966.6
20260508183041 60 46 1.0 8.0 0.00 0.00 0.00 55 966.4
20260508182542 60 298 2.0 8.0 0.00 0.00 0.00 52 966.2
20260508182040 60 242 1.0 6.0 0.00 0.00 0.00 52 966.3
20260508181541 61 280 1.0 4.0 0.00 0.00 0.00 51 966.3
20260508181039 61 229 2.0 10.0 0.00 0.00 0.00 53 966.3
20260508180532 61 327 2.0 10.0 0.00 0.00 0.00 52 966.5
20260508180024 61 215 2.0 10.0 0.00 0.00 0.00 52 966.7
20260508175524 61 294 3.0 13.0 0.00 0.00 0.00 53 966.7
20260508175024 61 294 3.0 13.0 0.00 0.00 0.00 51 966.8
20260508174524 62 277 2.0 8.0 0.00 0.00 0.00 55 966.7
20260508174022 61 307 2.0 8.0 0.00 0.00 0.00 55 966.9
20260508173747 60 295 1.0 6.0 0.00 0.00 0.00 59 966.9
20260508173020 60 249 2.0 7.0 0.00 0.00 0.00 57 967.0
20260508172521 59 300 2.0 10.0 0.00 0.00 0.00 61 966.9
20260508172020 58 318 3.0 10.0 0.00 0.00 0.00 58 967.1
20260508171519 58 233 3.0 9.0 0.00 0.00 0.00 57 967.2
20260508171018 58 300 3.0 11.0 0.00 0.00 0.00 56 967.2
20260508170518 58 285 2.0 11.0 0.00 0.00 0.00 53 967.1
20260508170240 59 310 1.0 7.0 0.00 0.00 0.00 54 967.1
20260508165520 59 273 2.0 7.0 0.00 0.00 0.00 53 967.0
20260508165017 59 230 2.0 7.0 0.00 0.00 0.00 52 967.1
20260508164516 59 200 2.0 7.0 0.00 0.00 0.00 55 967.1
20260508164017 58 267 2.0 9.0 0.00 0.00 0.00 52 967.1
20260508163517 59 252 2.0 9.0 0.00 0.00 0.00 52 967.2
20260508163011 59 180 2.0 8.0 0.00 0.00 0.00 53 967.2
20260508162504 60 326 3.0 10.0 0.00 0.00 0.00 51 967.2
20260508161959 59 297 2.0 10.0 0.00 0.00 0.00 52 967.2
20260508161453 58 260 1.0 7.0 0.00 0.00 0.00 55 967.2
20260508160947 58 251 2.0 7.0 0.00 0.00 0.00 54 967.3
20260508160441 58 313 2.0 11.0 0.00 0.00 0.00 55 967.3
20260508155935 58 277 3.0 11.0 0.00 0.00 0.00 53 967.4
20260508155428 59 306 3.0 10.0 0.00 0.00 0.00 54 967.4
20260508154922 59 290 3.0 13.0 0.00 0.00 0.00 53 967.4
20260508154417 60 204 2.0 13.0 0.00 0.00 0.00 54 967.3
20260508153911 59 301 2.0 8.0 0.00 0.00 0.00 56 967.4
20260508153405 59 309 3.0 8.0 0.00 0.00 0.00 54 967.3
20260508152859 59 286 3.0 9.0 0.00 0.00 0.00 55 967.3
20260508152353 59 231 3.0 9.0 0.00 0.00 0.00 56 967.3
20260508151847 60 218 3.0 11.0 0.00 0.00 0.00 55 967.2
20260508151341 59 217 3.0 11.0 0.00 0.00 0.00 54 967.2
20260508151325 59 324 3.0 10.0 0.00 0.00 0.00 53 967.1
20260508150548 59 328 2.0 10.0 0.00 0.00 0.00 55 967.2
20260508145823 59 232 3.0 11.0 0.00 0.00 0.00 55 967.1
20260508145317 58 336 3.0 11.0 0.00 0.00 0.00 54 967.1
20260508145036 59 206 2.0 10.0 0.00 0.00 0.00 54 967.1
20260508144305 58 220 2.0 10.0 0.00 0.00 0.00 55 967.1
20260508143758 58 285 1.0 8.0 0.00 0.00 0.00 55 967.2
20260508143254 57 233 1.0 8.0 0.00 0.00 0.00 59 967.2
20260508142747 56 194 2.0 8.0 0.00 0.00 0.00 60 967.2
20260508142242 56 248 3.0 12.0 0.00 0.00 0.00 58 967.4
20260508141735 55 227 2.0 12.0 0.00 0.00 0.00 58 967.5
20260508141229 55 203 1.0 5.0 0.00 0.00 0.00 60 967.6
20260508140723 54 257 1.0 5.0 0.00 0.00 0.00 61 967.4
20260508140439 54 298 0.0 3.0 0.00 0.00 0.00 62 967.5
20260508135710 53 192 1.0 7.0 0.00 0.00 0.00 63 967.6
20260508135204 53 223 1.0 7.0 0.00 0.00 0.00 63 967.5
20260508134659 53 332 1.0 5.0 0.00 0.00 0.00 64 967.6
20260508134153 53 189 1.0 5.0 0.00 0.00 0.00 65 967.6
20260508133646 52 219 0.0 3.0 0.00 0.00 0.00 65 967.6
20260508133141 52 215 0.0 2.0 0.00 0.00 0.00 67 967.7
20260508132635 51 0 1.0 3.0 0.00 0.00 0.00 69 967.7
20260508132129 51 215 1.0 3.0 0.00 0.00 0.00 66 967.8
20260508131630 51 216 0.0 5.0 0.00 0.00 0.00 73 967.9
20260508131129 50 198 0.0 5.0 0.00 0.00 0.00 72 968.0
20260508130628 49 230 0.0 5.0 0.00 0.00 0.00 69 968.0
20260508130127 49 338 0.0 2.0 0.00 0.00 0.00 73 968.0
20260508125624 48 200 0.0 2.0 0.00 0.00 0.00 75 968.0
20260508125122 48 198 0.0 2.0 0.00 0.00 0.00 79 967.9
20260508124623 47 179 0.0 2.0 0.00 0.00 0.00 80 967.9
20260508124126 46 169 0.0 0.0 0.00 0.00 0.00 82 968.0
20260508123842 45 228 0.0 0.0 0.00 0.00 0.00 81 968.0
20260508123120 44 18 0.0 0.0 0.00 0.00 0.00 81 968.0
20260508122618 44 19 0.0 0.0 0.00 0.00 0.00 82 968.0
20260508122117 43 19 0.0 0.0 0.00 0.00 0.00 84 968.0
20260508121619 43 19 0.0 0.0 0.00 0.00 0.00 84 968.1
20260508121337 42 351 0.0 0.0 0.00 0.00 0.00 84 968.0
20260508120616 42 351 0.0 0.0 0.00 0.00 0.00 85 968.0
20260508120117 42 351 0.0 0.0 0.00 0.00 0.00 85 968.0
20260508115610 42 351 0.0 0.0 0.00 0.00 0.00 85 968.0
20260508115325 41 351 0.0 0.0 0.00 0.00 0.00 86 968.1
20260508114607 41 351 0.0 0.0 0.00 0.00 0.00 87 968.1
20260508114104 41 351 0.0 0.0 0.00 0.00 0.00 88 968.2
20260508113608 40 351 0.0 0.0 0.00 0.00 0.00 88 968.2
20260508113104 40 351 0.0 0.0 0.00 0.00 0.00 88 968.3
20260508112603 40 351 0.0 0.0 0.00 0.00 0.00 90 968.2
20260508112324 39 351 0.0 0.0 0.00 0.00 0.00 90 968.2
20260508111819 39 351 0.0 0.0 0.00 0.00 0.00 91 968.1
20260508111322 38 351 0.0 0.0 0.00 0.00 0.00 91 968.2
20260508110559 37 351 0.0 0.0 0.00 0.00 0.00 92 968.2
20260508110322 37 351 0.0 0.0 0.00 0.00 0.00 93 968.1
20260508105559 37 351 0.0 0.0 0.00 0.00 0.00 93 968.0
20260508105058 37 351 0.0 0.0 0.00 0.00 0.00 93 968.0
20260508104558 37 351 0.0 0.0 0.00 0.00 0.00 93 968.0
20260508104057 37 351 0.0 0.0 0.00 0.00 0.00 93 967.9
20260508103559 37 351 0.0 0.0 0.00 0.00 0.00 93 967.8
20260508103056 37 351 0.0 0.0 0.00 0.00 0.00 94 967.8
20260508102822 36 351 0.0 0.0 0.00 0.00 0.00 94 967.7
20260508102543 36 351 0.0 0.0 0.00 0.00 0.00 94 967.9
20260508101553 36 351 0.0 0.0 0.00 0.00 0.00 94 967.8
20260508101322 35 351 0.0 0.0 0.00 0.00 0.00 94 967.7
20260508100551 35 351 0.0 0.0 0.00 0.00 0.00 94 967.7
20260508100314 35 351 0.0 0.0 0.00 0.00 0.00 94 967.5
20260508095551 35 351 0.0 0.0 0.00 0.00 0.00 94 967.5
20260508095051 35 351 0.0 0.0 0.00 0.00 0.00 94 967.5
20260508094553 35 351 0.0 0.0 0.00 0.00 0.00 94 967.6
20260508094048 35 351 0.0 0.0 0.00 0.00 0.00 94 967.6
20260508093548 35 351 0.0 0.0 0.00 0.00 0.00 94 967.5
20260508093048 35 351 0.0 0.0 0.00 0.00 0.00 94 967.5
20260508092548 35 351 0.0 0.0 0.00 0.00 0.00 94 967.5
20260508092047 35 351 0.0 0.0 0.00 0.00 0.00 94 967.4
20260508091547 35 351 0.0 0.0 0.00 0.00 0.00 94 967.5
20260508091047 35 351 0.0 0.0 0.00 0.00 0.00 94 967.5
20260508090548 35 351 0.0 0.0 0.00 0.00 0.00 95 967.5
20260508090319 35 351 0.0 0.0 0.00 0.00 0.00 95 967.5
20260508085814 35 351 0.0 0.0 0.00 0.00 0.00 95 967.4
20260508085043 35 351 0.0 0.0 0.00 0.00 0.00 95 967.4
20260508084804 35 351 0.0 0.0 0.00 0.00 0.00 95 967.4
20260508084044 35 351 0.0 0.0 0.00 0.00 0.00 94 967.4
20260508083545 35 351 0.0 0.0 0.00 0.00 0.00 94 967.4
20260508083045 35 351 0.0 0.0 0.00 0.00 0.00 94 967.4
20260508082804 36 351 0.0 0.0 0.00 0.00 0.00 94 967.4
20260508082044 36 351 0.0 0.0 0.00 0.00 0.00 94 967.4
20260508081545 36 351 0.0 0.0 0.00 0.00 0.00 94 967.4
20260508081354 36 351 0.0 0.0 0.00 0.00 0.00 94 967.4
20260508081316 36 351 0.0 0.0 0.00 0.00 0.00 94 967.4
20260508080045 36 351 0.0 0.0 0.00 0.00 0.00 94 967.4
20260508075543 36 351 0.0 0.0 0.00 0.00 0.00 94 967.4
20260508075041 36 351 0.0 0.0 0.00 0.00 0.00 94 967.4
20260508074540 36 351 0.0 0.0 0.00 0.00 0.00 94 967.4
20260508074037 37 351 0.0 0.0 0.00 0.00 0.00 94 967.3
20260508073537 37 351 0.0 0.0 0.00 0.00 0.00 94 967.4
20260508073254 37 351 0.0 0.0 0.00 0.00 0.00 95 967.3
20260508072535 37 351 0.0 0.0 0.00 0.00 0.00 95 967.3
20260508072031 37 351 0.0 0.0 0.00 0.00 0.00 95 967.3
20260508071529 37 350 0.0 0.0 0.00 0.00 0.00 95 967.4
20260508071030 37 351 0.0 0.0 0.00 0.00 0.00 95 967.5
20260508070531 37 351 0.0 0.0 0.00 0.00 0.00 95 967.6
20260508070024 37 351 0.0 0.0 0.00 0.00 0.00 95 967.7
20260508065523 37 351 0.0 0.0 0.00 0.00 0.00 95 967.7
20260508065022 37 351 0.0 0.0 0.00 0.00 0.00 95 967.7
20260508064519 37 351 0.0 0.0 0.00 0.00 0.00 95 967.7
20260508064021 37 351 0.0 0.0 0.00 0.00 0.00 95 967.7
20260508063521 37 351 0.0 0.0 0.00 0.00 0.00 95 967.8
20260508063242 38 351 0.0 0.0 0.00 0.00 0.00 96 967.8
20260508062521 38 351 0.0 0.0 0.00 0.00 0.00 96 967.8
20260508062019 38 351 0.0 0.0 0.00 0.00 0.00 96 967.8
20260508061516 38 351 0.0 0.0 0.00 0.00 0.00 96 967.7
20260508061237 38 351 0.0 0.0 0.00 0.00 0.00 96 967.7
20260508060511 38 351 0.0 0.0 0.00 0.00 0.00 96 967.7
20260508060013 38 351 0.0 0.0 0.00 0.00 0.00 96 967.7
20260508055512 38 351 0.0 0.0 0.00 0.00 0.00 96 967.7
20260508055011 38 351 0.0 0.0 0.00 0.00 0.00 95 967.7